Le nostre stazioni meteo in Italia

Pubblicità
Il mio iltempo24.it
Brindisi, Italia (16320): Temperatura & dewpoint: 17.01.2019 05:00:00 - 23.01.2019 05:00:00 (CET)Brindisi, Italia (16320): velocità del vento: 17.01.2019 05:00:00 - 23.01.2019 05:00:00 (CET)Brindisi, Italia (16320): direzione del vento: 17.01.2019 05:00:00 - 23.01.2019 05:00:00 (CET)Brindisi, Italia (16320): reduced air pressure: 17.01.2019 05:00:00 - 23.01.2019 05:00:00 (CET)Brindisi, Italia (16320): visibility: 17.01.2019 05:00:00 - 23.01.2019 05:00:00 (CET)Brindisi, Italia (16320): precipitazioni: 17.01.2019 05:00:00 - 23.01.2019 05:00:00 (CET)
Data & Tempo tt [°C] td [°C] ff [km/h] ff [kn] dd ppp [hPa] vv [km] rr [mm]
23.01.2019 05:00:00 7,0 4,0 8 4 S - 10 -
23.01.2019 04:00:00 6,9 3,8 8 4 SO 1002,6 10 0,0
23.01.2019 03:00:00 8,0 4,0 11 6 SSO - 10 -
23.01.2019 02:00:00 7,0 5,0 13 7 OSO - 10 -
23.01.2019 01:00:00 8,3 5,3 15 8 SSO 1004,2 10 -
23.01.2019 00:00:00 6,0 5,0 13 7 SO - 10 -
22.01.2019 23:00:00 8,0 6,0 8 4 S - 10 -
22.01.2019 22:00:00 8,7 5,5 5 3 SO 1004,3 10 0,0
22.01.2019 21:00:00 10,0 7,0 16 9 SSO - 10 -
22.01.2019 20:00:00 11,0 6,0 16 9 SSO - 10 -
22.01.2019 19:00:00 10,8 7,5 11 6 SSO 1003,3 10 -
22.01.2019 18:00:00 12,0 8,0 11 6 SSO - 10 -
22.01.2019 17:00:00 12,0 9,0 15 8 SO - 10 -
22.01.2019 16:00:00 12,5 10,2 13 7 S 1002,5 10 0,0
22.01.2019 15:00:00 13,0 9,0 21 11 S - 8 -
22.01.2019 14:00:00 13,0 8,0 24 13 S - 10 -
22.01.2019 13:00:00 13,4 8,3 26 14 S 1004,4 10 -
22.01.2019 12:00:00 14,0 9,0 16 9 S - 10 -
22.01.2019 11:00:00 12,0 9,0 16 9 SSE - 10 -
22.01.2019 10:00:00 11,4 9,2 16 9 SE 1006,5 10 0,0
22.01.2019 09:00:00 11,0 8,0 16 9 SSE - 10 -
22.01.2019 08:00:00 10,0 8,0 16 9 S - 10 -
22.01.2019 07:00:00 9,3 7,1 8 4 SE 1007,4 10 -
22.01.2019 06:00:00 10,0 9,0 15 8 S - 10 -
22.01.2019 05:00:00 10,0 8,0 18 10 SSE - 10 -
22.01.2019 04:00:00 10,5 8,2 21 11 SSE 1008,8 10 0,0
22.01.2019 03:00:00 11,0 8,0 22 12 SSE - 10 -
22.01.2019 02:00:00 11,0 8,0 13 7 SE - 10 -
22.01.2019 01:00:00 10,8 8,3 15 8 S 1011,2 10 -
22.01.2019 00:00:00 11,0 8,0 18 10 SSE - 10 -
21.01.2019 23:00:00 10,0 8,0 15 8 SSE - 10 -
21.01.2019 22:00:00 9,5 7,7 11 6 SSE 1012,1 10 0,0
21.01.2019 21:00:00 9,0 8,0 8 4 SSE - 10 -
21.01.2019 20:00:00 10,0 7,0 9 5 SSE - 10 -
21.01.2019 19:00:00 10,6 7,9 9 5 SSE 1012,4 10 -
21.01.2019 18:00:00 11,0 8,0 8 4 SSE - 10 -
21.01.2019 17:00:00 12,0 8,0 5 3 SE - 10 -
21.01.2019 16:00:00 12,5 9,3 8 4 SE 1012,6 10 0,0
21.01.2019 15:00:00 12,0 9,0 13 7 SE - 10 -
21.01.2019 14:00:00 13,0 9,0 11 6 SE - 10 -
21.01.2019 13:00:00 12,7 9,0 13 7 ESE 1013,4 10 -
21.01.2019 12:00:00 12,0 9,0 5 3 ESE - 10 -
21.01.2019 11:00:00 12,0 9,0 4 2 - - 10 -
21.01.2019 10:00:00 10,4 8,4 4 2 - 1014,9 10 0,0
21.01.2019 09:00:00 7,0 7,0 5 3 SSO - 8 -
21.01.2019 08:00:00 4,0 3,0 8 4 SSE - 8 -
21.01.2019 07:00:00 3,1 2,7 4 2 S 1014,3 8 -
21.01.2019 06:00:00 3,0 3,0 8 4 SSO - 5 -
21.01.2019 05:00:00 3,0 3,0 5 3 SSO - 5 -
21.01.2019 04:00:00 4,8 4,3 9 5 SO 1014,1 10 0,0
21.01.2019 03:00:00 4,0 3,0 8 4 OSO - 10 -
21.01.2019 02:00:00 4,0 3,0 11 6 OSO - 10 -
21.01.2019 01:00:00 4,1 3,3 11 6 OSO 1014,7 10 -
21.01.2019 00:00:00 4,0 3,0 5 3 OSO - 10 -
20.01.2019 23:00:00 5,0 4,0 11 6 OSO - 10 -
20.01.2019 22:00:00 5,5 4,4 2 1 - 1014,8 10 0,0
20.01.2019 21:00:00 6,0 5,0 2 1 - - 10 -
20.01.2019 20:00:00 7,0 5,0 2 1 - - 10 -
20.01.2019 19:00:00 7,7 5,8 2 1 - 1014,4 10 -
20.01.2019 18:00:00 10,0 7,0 5 3 ENE - 10 -
20.01.2019 17:00:00 11,0 7,0 4 2 E - 10 -
20.01.2019 16:00:00 11,2 6,7 5 3 NE 1014,3 10 0,0
20.01.2019 15:00:00 12,0 5,0 8 4 N - 10 -
20.01.2019 14:00:00 12,0 6,0 9 5 N - 10 -
20.01.2019 13:00:00 11,4 5,4 11 6 N 1014,4 10 -
20.01.2019 12:00:00 12,0 5,0 11 6 NO - 10 -
20.01.2019 11:00:00 11,0 6,0 13 7 NO - 10 -
20.01.2019 10:00:00 10,2 5,6 11 6 NO 1015,3 10 0,0
20.01.2019 09:00:00 8,0 5,0 11 6 ONO - 10 -
20.01.2019 08:00:00 4,0 3,0 13 7 OSO - 10 -
20.01.2019 07:00:00 3,6 2,6 9 5 O 1013,9 10 -
20.01.2019 06:00:00 - - - - - - - -
20.01.2019 05:00:00 4,0 3,0 11 6 OSO - 10 -
20.01.2019 04:00:00 5,0 4,3 9 5 OSO 1013,5 10 0,0
20.01.2019 03:00:00 5,0 5,0 9 5 O - 10 -
20.01.2019 02:00:00 6,0 5,0 8 4 SO - 10 -
20.01.2019 01:00:00 6,3 5,5 5 3 SSO 1013,3 10 -
20.01.2019 00:00:00 8,0 7,0 4 2 - - 10 -
19.01.2019 23:00:00 9,0 8,0 13 7 OSO - 8 -
19.01.2019 22:00:00 8,8 7,9 13 7 SO 1013,8 10 0,0
19.01.2019 21:00:00 11,0 9,0 13 7 S - 10 -
19.01.2019 20:00:00 11,0 10,0 16 9 SSE - 10 -
19.01.2019 19:00:00 10,8 9,0 11 6 SSE 1013,4 10 -
19.01.2019 18:00:00 11,0 9,0 11 6 SSE - 10 -
19.01.2019 17:00:00 11,0 9,0 13 7 SE - 10 -
19.01.2019 16:00:00 11,5 9,0 21 11 SE 1013,3 10 0,0
19.01.2019 15:00:00 12,0 10,0 13 7 SE - 10 -
19.01.2019 14:00:00 13,0 10,0 9 5 SSE - 10 -
19.01.2019 13:00:00 12,2 9,6 11 6 S 1013,8 10 -
19.01.2019 12:00:00 14,0 10,0 11 6 S - 10 -
19.01.2019 11:00:00 14,0 10,0 9 5 S - 10 -
19.01.2019 10:00:00 12,5 10,2 9 5 S 1015,2 10 0,0
19.01.2019 09:00:00 9,0 8,0 9 5 SSO - 10 -
19.01.2019 08:00:00 5,0 5,0 5 3 SO - 9 -
19.01.2019 07:00:00 5,4 4,8 13 7 SO 1014,2 10 -
19.01.2019 06:00:00 6,0 6,0 9 5 SO - 8 -
19.01.2019 05:00:00 7,0 6,0 5 3 SSO - 8 -
19.01.2019 04:00:00 8,0 7,2 4 2 S 1014,4 - 0,0
19.01.2019 03:00:00 - - - - - - - -
19.01.2019 02:00:00 8,0 8,0 5 3 OSO - 8 -
19.01.2019 01:00:00 8,6 8,0 5 3 SSE 1015,0 8 -
19.01.2019 00:00:00 10,0 9,0 8 4 S - 10 -
18.01.2019 23:00:00 11,0 9,0 9 5 S - 10 -
18.01.2019 22:00:00 10,8 9,5 13 7 S 1015,1 10 0,0
18.01.2019 21:00:00 11,0 9,0 11 6 S - 10 -
18.01.2019 20:00:00 11,0 9,0 11 6 S - 10 -
18.01.2019 19:00:00 11,9 9,0 13 7 S 1014,8 10 -
18.01.2019 18:00:00 13,0 9,0 15 8 S - 10 -
18.01.2019 17:00:00 14,0 6,0 15 8 SSO - 10 -
18.01.2019 16:00:00 15,1 7,1 13 7 S 1014,5 10 0,0
18.01.2019 15:00:00 16,0 6,0 18 10 S - 10 -
18.01.2019 14:00:00 16,0 6,0 18 10 S - 10 -
18.01.2019 13:00:00 15,7 5,5 21 11 SO 1014,7 10 -
18.01.2019 12:00:00 15,0 9,0 18 10 SSO - 10 -
18.01.2019 11:00:00 14,0 10,0 15 8 S - 10 -
18.01.2019 10:00:00 13,1 10,9 15 8 S 1015,9 10 0,0
18.01.2019 09:00:00 11,0 10,0 15 8 S - 10 -
18.01.2019 08:00:00 9,0 8,0 9 5 SSE - 8 -
18.01.2019 07:00:00 9,4 8,5 8 4 SSE 1015,4 10 -
18.01.2019 06:00:00 10,0 8,0 13 7 S - 10 -
18.01.2019 05:00:00 10,0 8,0 11 6 S - 10 -
18.01.2019 04:00:00 7,5 6,9 8 4 S 1016,0 6 0,0
18.01.2019 03:00:00 5,0 5,0 8 4 S - 4,0 -
18.01.2019 02:00:00 4,0 3,0 4 2 S - 7 -
18.01.2019 01:00:00 4,5 3,4 2 1 - 1017,3 8 -
18.01.2019 00:00:00 5,0 4,0 4 2 SSE - 10 -
17.01.2019 23:00:00 6,0 4,0 9 5 S - 8 -
17.01.2019 22:00:00 7,0 4,9 9 5 S 1018,3 8 0,0
17.01.2019 21:00:00 8,0 6,0 9 5 S - 8 -
17.01.2019 20:00:00 8,0 5,0 9 5 S - 10 -
17.01.2019 19:00:00 8,3 5,1 9 5 S 1018,5 10 -
17.01.2019 18:00:00 10,0 6,0 8 4 S - 10 -
17.01.2019 17:00:00 11,0 5,0 11 6 S - 10 -
17.01.2019 16:00:00 12,8 6,0 18 10 S 1018,5 10 0,0
17.01.2019 15:00:00 14,0 6,0 13 7 SE - 10 -
17.01.2019 14:00:00 13,0 6,0 13 7 ESE - 10 -
17.01.2019 13:00:00 12,8 5,9 13 7 E 1019,5 10 -
17.01.2019 12:00:00 13,0 5,0 11 6 SE - 10 -
17.01.2019 11:00:00 12,0 4,0 13 7 SE - 10 -
17.01.2019 10:00:00 9,4 3,6 5 3 S 1021,6 10 0,0
17.01.2019 09:00:00 6,0 3,0 4 2 S - 10 -
17.01.2019 08:00:00 3,0 1,0 5 3 SSE - 10 -
17.01.2019 07:00:00 3,0 1,1 4 2 SSO 1021,2 10 -
17.01.2019 06:00:00 2,0 0,0 8 4 SSO - 10 -
17.01.2019 05:00:00 4,0 1,0 8 4 SSO - 10 -

tt = Temperatura
td = dewpoint
ff = velocità del vento
dd = direzione del vento
ppp = reduced air pressure
vv = visibility
rr = precipitazioni

Stazioni seguenti

WeatherPro
AMSI
MeteoEarth